Location: Podia
(1.5569°N, 32.3469°E)
Time: 13:53:15
(UTC+00:00)

SL-24 R/B - Pass Details

Date: 01 June 2020
Orbit: 625 x 1075 km, 98.0° (Epoch: 04 July)

Event Time Altitude Azimuth Distance (km) Brightness Sun altitude
Exits shadow 17:19:05 28° 173° (S) 1,202 5.2 -20.2°
Maximum altitude 17:21:23 83° 258° (WSW) 653 4.1 -20.8°
Drops below altitude 10° 17:25:56 10° 346° (NNW) 2,110 7.3 -21.8°
Sets 17:28:15 0° 347° (NNW) 3,076 8.2 -22.3°
